Theta_e
305 306 305 306 305 305 305 305 305 304 304 305 306 305 305 304 304 305 305 305 305 306 305 305 306 306 305 305 304 304 305 306 306 307 308 309 309 309 310 310 311 312 312 313 314 315 316 317 318 319 318 315 313 313 314 316 321 325 325 324 324 326 327 319 315 319 322 323 325 326 326 326 324 322 324 324 322 320 318 317 317 315 312 312 312 310 316
305 306 305 306 306 305 305 304 305 304 303 304 306 305 304 303 305 305 305 305 305 305 305 305 306 305 305 305 304 304 305 305 306 307 308 310 309 309 311 311 311 311 312 313 313 314 316 317 316 317 318 315 313 312 313 316 319 320 321 323 322 322 324 320 316 317 319 319 320 320 322 323 323 323 325 325 324 324 322 320 319 316 312 313 312 310 315
305 306 305 306 306 305 305 304 304 304 303 304 305 305 304 304 305 305 304 305 305 304 304 304 305 305 305 305 305 305 305 306 306 306 307 309 308 308 310 310 310 311 311 312 313 313 315 316 316 316 316 315 313 312 313 315 317 317 318 320 320 323 326 323 317 316 316 316 316 316 318 320 322 324 325 325 324 323 320 316 314 314 315 315 313 311 317
305 305 306 306 306 305 305 304 304 305 303 303 305 306 304 303 304 304 304 305 305 304 304 304 304 304 304 305 305 305 305 305 305 305 307 308 308 308 309 310 310 311 312 312 313 312 313 314 315 316 316 315 313 312 313 314 315 317 318 318 320 326 329 327 325 323 320 320 323 324 323 320 317 319 323 324 325 324 321 315 312 315 317 315 316 317 318
305 305 306 306 306 305 305 305 304 304 304 303 305 306 304 303 304 304 304 305 304 304 304 304 304 304 304 305 306 305 305 305 305 306 307 307 307 308 309 309 309 310 312 313 313 312 313 313 314 315 315 315 313 312 313 314 315 317 317 316 321 326 325 326 331 328 324 325 326 326 325 322 317 318 320 321 324 324 320 315 315 320 316 312 320 325 319
304 305 305 306 306 306 305 305 304 304 304 304 305 305 303 304 303 303 304 304 304 304 304 304 304 304 304 305 306 305 305 305 305 305 306 306 307 308 308 308 308 309 310 312 313 314 314 314 314 315 314 314 314 314 314 314 314 315 315 315 319 323 323 323 325 324 322 323 323 323 324 325 323 322 321 320 323 322 319 317 321 323 317 315 323 327 323
303 304 304 305 306 306 306 305 305 304 303 304 306 305 304 304 303 303 304 303 303 303 303 304 304 304 304 305 305 305 305 305 305 305 305 306 307 307 307 307 307 308 309 310 312 314 314 314 314 315 314 314 314 315 315 314 313 313 314 315 317 319 323 323 320 320 321 321 322 323 323 323 323 324 324 324 324 323 321 322 324 324 321 322 327 328 326
303 303 304 305 305 305 306 306 305 305 304 305 306 305 304 305 304 304 304 303 303 303 303 303 304 304 305 306 305 305 305 305 305 304 305 306 307 307 306 307 307 307 309 310 310 311 311 312 312 312 313 314 314 315 315 314 313 312 313 315 315 317 320 321 319 319 320 320 321 322 322 322 321 322 324 324 324 324 324 324 325 324 323 325 327 326 326
302 302 303 304 304 305 305 306 306 305 304 305 305 304 304 305 305 305 304 304 304 304 303 303 303 304 305 305 304 305 305 305 304 305 305 306 306 306 306 306 307 307 308 309 309 309 309 309 310 310 311 312 312 313 313 312 312 313 313 314 315 316 318 319 319 319 318 319 320 320 321 321 319 318 322 323 322 322 322 324 325 324 323 324 323 321 324
301 300 301 303 304 305 305 306 306 305 305 305 305 304 305 305 305 305 305 305 304 303 303 302 303 304 304 304 304 305 305 305 304 305 306 306 306 306 305 306 307 308 308 308 308 308 307 307 308 308 309 310 310 310 311 311 311 312 313 314 314 315 316 317 318 318 318 318 319 319 319 318 317 319 322 323 323 324 323 324 326 326 325 323 321 321 327
301 300 300 302 304 305 305 305 306 306 305 305 305 305 305 305 305 305 305 304 303 303 303 303 303 303 303 303 303 304 304 305 305 305 305 305 305 305 305 306 307 308 308 308 307 306 306 307 307 308 308 308 309 309 310 310 310 311 312 313 313 314 315 316 318 319 318 318 318 318 318 317 319 324 326 325 324 324 323 323 325 326 326 325 325 327 329
300 300 300 301 303 305 305 306 306 306 306 305 305 305 305 304 305 305 305 304 303 303 303 303 303 303 303 303 303 304 305 305 305 305 305 305 305 305 305 306 307 308 308 306 306 306 307 307 307 308 308 308 308 309 309 309 310 310 311 311 312 314 315 316 318 318 318 317 318 318 318 318 322 327 330 328 327 328 329 329 329 328 327 326 326 328 328
301 300 300 301 302 304 305 306 306 306 306 305 305 305 305 304 305 305 305 304 304 303 303 303 303 303 303 303 303 303 304 304 304 305 305 305 305 305 305 305 306 307 306 305 306 307 308 309 309 309 309 309 309 309 309 309 309 309 310 310 311 313 314 315 316 317 318 318 318 319 320 320 323 327 330 329 331 332 329 326 327 329 330 332 332 331 330
300 300 300 300 303 305 306 306 306 307 306 306 305 305 305 305 305 305 305 304 304 303 303 303 303 303 303 303 303 303 303 304 304 305 305 305 305 305 305 305 306 306 306 306 308 309 310 310 309 310 309 309 310 310 310 309 309 309 309 310 311 312 313 314 315 316 318 318 316 318 320 319 321 327 332 332 333 334 331 326 328 335 338 338 340 339 336
300 300 300 301 304 306 306 306 306 307 307 306 306 305 305 305 305 305 305 305 304 303 303 303 303 303 303 303 303 303 303 303 304 305 305 305 305 305 305 305 307 306 305 306 309 310 310 310 309 310 309 310 311 311 311 311 310 309 309 309 310 311 312 314 315 315 317 317 317 318 318 318 321 327 334 334 332 335 336 331 332 341 343 341 343 343 342
299 299 301 303 306 307 307 307 307 307 308 307 306 306 305 305 305 305 305 305 304 304 304 304 303 303 303 303 303 303 303 303 304 304 305 306 306 305 304 306 306 305 305 308 310 310 311 311 310 309 309 310 311 311 311 312 311 310 310 309 310 311 312 314 315 314 315 316 317 318 317 319 326 332 334 332 329 334 335 325 327 341 345 341 343 346 346
299 301 304 306 307 307 307 307 307 308 308 308 307 306 305 305 305 305 305 305 304 304 303 303 303 303 303 304 304 304 303 303 304 304 305 306 305 305 305 305 305 305 307 309 310 310 310 311 310 310 310 310 311 311 311 311 312 314 313 310 310 311 312 313 314 314 315 316 316 317 316 319 328 332 331 329 330 335 332 322 325 340 343 340 343 345 346
302 305 306 307 307 307 308 308 308 308 308 308 307 306 306 305 305 305 305 305 304 304 303 303 303 303 304 304 304 303 303 303 304 304 304 304 305 305 305 305 305 306 307 308 310 310 310 310 310 310 311 311 310 310 312 312 312 316 318 315 313 313 313 313 313 313 315 315 316 316 316 319 324 326 328 330 329 329 326 323 330 340 340 340 344 343 344
306 307 307 307 307 308 308 308 308 308 309 309 308 306 306 305 305 305 305 305 304 304 304 304 304 303 304 304 303 303 303 303 304 304 303 304 305 305 304 305 306 306 307 309 310 309 309 309 310 310 311 312 312 311 313 313 314 316 318 317 316 315 314 314 314 314 314 314 315 315 315 318 321 320 322 326 324 322 326 332 337 340 339 342 343 342 344
307 307 307 307 307 308 308 308 308 309 309 309 308 307 306 305 305 304 304 305 305 304 304 304 304 304 304 304 303 303 303 303 304 304 304 304 304 304 304 306 307 307 308 309 310 309 308 308 310 310 310 312 312 312 312 312 313 314 315 316 316 317 316 315 314 313 314 314 314 314 315 320 325 324 323 325 323 324 333 338 337 338 340 342 342 343 344
307 307 307 307 307 308 308 308 309 309 309 309 309 308 306 306 306 305 304 305 305 305 304 304 304 304 304 304 303 303 303 303 303 304 303 304 304 304 305 306 306 306 308 309 309 309 308 308 310 310 310 311 312 312 313 313 312 312 313 314 315 316 317 317 316 316 316 315 315 317 319 323 325 326 328 332 330 331 337 338 336 338 340 340 341 343 342
307 307 307 307 308 308 308 309 309 309 308 309 309 308 307 306 306 305 304 305 305 305 304 305 305 304 304 304 304 304 304 303 303 304 303 303 304 304 304 305 305 305 306 307 308 309 309 309 309 309 310 311 311 312 313 313 312 312 313 314 315 316 317 317 318 318 318 317 317 319 321 321 322 324 329 332 332 332 334 336 337 338 339 338 340 341 339
306 307 307 307 308 308 308 309 308 308 308 308 309 309 308 306 306 306 305 305 305 304 305 305 305 305 305 305 305 304 304 304 304 304 304 303 304 304 304 305 306 306 306 307 308 309 309 309 309 309 310 311 311 312 312 311 310 311 312 313 314 315 314 315 316 317 317 318 318 318 319 319 320 323 325 327 328 331 333 334 336 337 337 337 338 339 338
306 306 307 307 308 308 308 308 308 308 308 308 308 309 308 307 306 305 305 305 305 305 305 305 304 305 305 305 305 305 304 304 305 305 304 304 304 305 305 305 305 306 307 308 308 309 309 309 310 310 310 310 311 311 311 310 311 312 312 311 312 313 313 314 315 316 316 317 318 318 319 320 320 322 323 323 327 330 331 333 335 336 336 336 337 338 337
306 307 307 307 308 308 308 308 308 308 308 308 308 309 309 308 306 306 305 305 305 305 305 305 305 305 305 305 304 304 304 304 305 305 305 305 305 305 305 306 305 306 307 308 307 308 309 309 310 309 309 309 310 310 310 310 312 312 311 311 312 312 313 313 314 314 315 316 317 317 318 318 318 319 320 321 325 329 329 331 333 334 334 335 336 336 336
306 307 307 307 308 308 308 308 308 308 308 308 309 308 308 308 307 306 305 306 306 305 304 305 305 305 305 305 305 305 305 304 305 305 305 306 305 305 306 306 306 306 306 306 306 307 308 309 309 309 309 309 309 310 310 310 311 310 310 311 311 311 312 312 313 314 314 315 315 316 317 317 317 318 319 322 325 326 326 328 331 332 333 336 337 336 335
307 307 307 307 307 308 308 308 308 308 308 308 308 309 308 308 307 307 306 305 306 305 304 305 305 305 305 305 305 306 305 305 305 305 306 306 306 305 306 305 305 305 306 306 306 306 307 307 308 308 308 308 308 309 310 310 310 310 311 311 311 311 312 312 313 314 314 314 315 317 319 319 319 321 322 323 323 323 324 327 330 331 332 335 337 337 335
307 307 307 307 307 307 307 308 308 308 308 308 308 308 308 308 308 307 306 305 306 306 306 305 305 304 305 306 306 306 306 306 306 306 306 306 306 306 306 306 305 305 306 306 306 306 306 306 307 307 307 308 309 309 309 310 311 311 311 311 311 311 312 312 312 313 313 314 315 317 318 318 318 319 320 320 320 321 323 325 327 330 331 333 336 337 336
307 307 307 307 307 307 307 308 308 308 308 308 308 308 308 308 307 307 307 305 305 306 306 305 305 305 306 307 306 306 306 306 307 307 307 307 307 307 307 307 306 306 306 306 306 307 306 306 307 307 308 309 310 310 309 310 311 311 311 311 311 312 312 312 312 313 313 313 314 315 315 315 316 316 317 318 319 321 321 322 324 328 330 331 334 336 336
307 307 307 307 307 307 308 308 308 308 308 308 308 308 308 308 307 307 307 306 305 305 306 305 305 306 306 306 306 307 307 307 307 307 308 308 307 308 308 307 307 306 306 306 307 307 307 307 307 307 308 309 310 310 309 310 310 310 310 311 312 312 313 312 312 313 313 313 313 314 314 314 315 315 316 317 318 319 320 321 324 328 330 331 333 334 334
307 307 307 307 307 307 308 308 308 308 308 308 308 308 308 308 307 306 306 306 306 305 306 306 306 306 306 306 307 308 308 308 308 308 308 308 308 308 308 308 307 307 307 307 307 307 307 308 308 308 308 309 309 310 310 309 310 310 310 311 312 313 313 312 312 313 313 312 312 312 313 313 314 315 316 317 317 318 320 322 325 328 330 331 333 333 333
307 307 307 307 307 308 309 309 308 308 308 308 309 308 307 307 306 305 305 306 306 305 306 306 306 306 307 308 308 308 308 309 309 309 309 309 309 308 308 308 307 307 308 308 308 308 308 308 308 308 308 309 310 311 311 310 310 311 311 312 313 313 313 313 313 312 312 312 313 313 314 314 314 315 316 317 318 320 322 324 327 330 331 331 331 333 333
307 307 307 307 308 309 310 309 309 309 309 309 308 307 306 306 305 304 305 306 306 306 306 306 306 307 308 308 308 309 309 310 310 310 310 311 311 310 309 308 307 308 308 309 309 309 309 309 309 309 310 310 312 312 312 311 311 312 312 312 313 313 314 315 314 314 313 313 313 314 314 314 315 316 318 319 320 321 323 326 328 330 331 330 330 331 332
307 307 307 308 309 309 310 310 309 309 309 309 309 308 307 306 306 304 304 305 305 305 305 305 306 307 308 308 308 309 310 310 311 311 312 313 313 312 311 309 309 309 309 309 309 309 309 310 310 311 312 313 313 313 312 311 311 311 312 312 313 314 316 317 317 316 315 314 314 314 314 314 315 317 318 321 323 324 326 327 328 329 330 330 330 331 330
308 308 308 309 309 309 310 310 310 310 310 310 310 309 308 307 306 305 304 305 306 306 305 305 306 307 308 309 310 310 309 310 310 311 312 312 312 312 313 312 311 310 310 309 309 310 311 311 312 313 314 314 314 314 313 313 312 313 313 313 314 315 317 318 318 318 317 316 316 316 315 315 316 317 319 321 324 326 326 326 327 329 330 331 331 330 329
309 309 309 309 309 310 311 312 311 311 311 310 309 309 308 308 306 305 304 304 305 306 306 306 306 307 308 309 310 309 309 310 311 311 312 313 313 312 313 313 313 312 312 311 311 312 313 314 314 313 314 315 315 315 315 314 314 314 314 314 315 316 317 318 319 319 319 318 317 318 318 318 319 320 321 323 325 326 326 326 326 328 330 330 331 330 328
310 310 310 309 310 312 314 313 311 311 310 309 308 308 308 307 306 305 304 304 305 305 306 306 306 307 307 308 309 309 309 311 311 311 312 314 314 314 314 314 314 314 314 313 313 313 314 315 314 313 313 313 313 314 315 315 315 315 314 315 316 317 317 318 318 318 319 319 319 319 320 321 322 323 324 324 325 325 325 325 326 328 329 329 329 329 327
312 312 312 313 315 316 315 314 311 309 309 309 309 309 308 308 307 306 306 306 307 307 306 306 306 306 306 307 308 309 309 310 311 311 312 314 315 315 315 315 315 314 313 313 313 313 314 314 312 312 312 312 311 313 315 316 317 317 317 317 317 318 319 319 320 321 321 322 322 322 324 325 325 325 325 325 325 324 324 325 326 327 328 328 328 327 326
314 315 317 319 318 316 314 312 310 309 310 310 311 311 310 309 308 308 307 307 307 307 307 307 307 306 307 308 309 309 310 310 310 311 312 313 314 314 314 314 314 313 313 313 313 312 313 312 312 311 312 311 311 313 315 315 316 317 318 319 320 320 321 322 323 323 323 324 325 326 327 326 326 326 325 325 326 325 325 326 327 327 327 327 327 326 327
317 317 319 319 317 314 312 310 309 310 311 312 312 313 312 310 310 310 309 308 308 308 308 308 308 308 308 308 310 311 311 310 311 311 312 312 313 313 313 312 312 313 313 314 314 312 311 312 312 312 312 312 312 313 313 314 315 316 317 319 320 320 321 323 324 324 324 324 326 326 326 326 326 326 326 326 326 326 326 327 328 327 326 327 327 327 328
316 317 317 316 313 311 310 310 310 313 315 315 315 314 314 313 312 310 311 312 313 312 310 310 311 312 311 309 310 311 311 312 312 312 312 312 313 313 313 312 312 313 314 315 314 312 311 312 313 313 312 312 312 313 313 314 315 316 317 318 319 320 321 323 325 325 325 326 326 326 325 325 326 326 325 326 327 327 327 327 327 326 326 328 328 328 329
313 313 312 312 311 310 312 313 315 317 317 316 315 315 315 317 316 315 315 316 317 316 313 312 313 315 314 311 311 312 313 313 313 314 314 314 314 313 313 312 312 314 316 317 315 313 313 314 314 313 312 312 312 312 312 313 314 315 316 317 318 319 320 320 322 324 325 326 327 327 326 327 326 326 327 327 327 327 328 328 328 328 328 330 330 330 330
311 311 312 313 313 314 315 316 316 316 315 315 315 316 317 318 318 319 319 318 318 319 318 315 314 316 315 313 313 314 314 313 313 315 316 316 315 314 315 314 315 317 318 316 315 314 314 313 312 312 312 312 312 311 312 313 314 315 315 316 317 318 318 319 319 320 321 323 324 325 326 327 327 327 328 328 327 327 328 329 330 329 329 328 328 328 328
314 315 317 317 315 315 316 316 315 316 316 315 315 317 319 319 319 321 321 319 318 319 319 319 319 320 319 317 315 316 316 316 315 316 317 317 317 318 317 317 318 320 319 316 314 314 313 312 312 312 313 313 312 312 312 312 313 314 315 315 316 317 317 318 318 318 319 320 320 321 321 322 322 323 324 324 324 325 326 327 328 328 327 326 326 326 325
317 315 316 315 314 315 317 316 314 315 317 317 317 318 319 320 320 320 320 318 318 318 318 318 320 321 321 319 318 318 319 319 318 318 319 320 320 320 319 318 320 320 318 315 314 314 313 311 312 313 313 312 312 312 312 312 312 313 314 314 315 316 316 317 317 318 318 318 318 318 319 319 319 319 320 321 321 321 322 322 323 324 324 325 325 325 324
315 313 314 316 315 315 316 316 315 316 317 318 318 318 318 319 319 319 318 318 318 318 318 318 320 320 319 320 320 319 320 320 320 319 320 321 321 320 319 319 319 319 317 315 315 314 313 312 312 313 313 312 311 311 312 312 312 313 313 313 314 315 315 316 316 317 317 317 317 317 317 318 317 318 318 318 318 318 318 318 318 319 319 321 321 321 321
314 313 313 315 316 316 316 317 317 317 317 316 316 316 316 316 318 318 317 318 320 320 319 319 319 319 319 319 320 319 319 320 319 318 318 320 320 319 318 318 317 316 316 316 315 314 313 313 314 314 313 312 312 312 312 312 313 313 313 313 313 314 314 315 315 316 316 316 316 316 317 317 316 316 316 317 317 316 316 316 316 316 316 316 317 317 317
314 313 314 315 316 316 315 316 316 315 315 315 315 315 315 315 316 316 316 317 320 322 321 320 320 320 319 318 318 317 317 317 318 317 317 317 318 317 316 316 316 315 315 315 314 314 314 314 315 315 314 313 313 312 312 312 313 313 313 313 314 314 314 314 315 315 315 316 316 316 316 316 316 315 315 316 316 316 315 315 314 315 315 315 315 315 315
314 314 315 316 315 314 314 315 314 314 314 314 314 314 315 315 315 315 315 316 319 321 321 320 320 320 319 317 316 316 316 317 317 316 315 316 316 316 316 315 315 314 314 314 314 314 314 314 315 314 313 313 313 313 312 312 312 312 312 313 314 315 315 314 314 315 315 316 316 316 315 315 315 315 315 315 315 314 314 313 313 314 314 314 315 315 314
314 313 314 314 315 314 314 314 314 313 313 313 314 314 314 314 315 315 315 316 318 318 319 319 319 318 317 316 315 315 316 317 316 314 314 316 316 315 315 314 314 314 314 314 314 314 314 313 313 312 312 312 313 312 312 312 312 311 311 312 313 314 314 314 314 315 315 315 315 315 315 315 315 314 313 313 313 313 313 312 312 312 312 313 313 313 313
313 313 313 313 314 314 314 313 313 313 313 313 313 313 314 314 314 315 315 316 316 316 316 317 316 315 314 315 315 315 315 315 315 314 314 315 315 315 314 314 314 314 314 314 314 313 312 312 312 312 312 312 312 312 312 312 312 312 312 313 313 313 314 314 314 314 314 314 314 314 314 314 314 313 312 312 312 312 312 312 311 311 311 311 311 312 312
313 313 313 313 312 312 313 313 313 313 312 312 313 313 313 313 314 314 315 315 315 314 314 315 314 314 314 315 316 316 315 314 314 314 314 315 315 315 315 315 314 313 313 313 313 312 310 311 312 312 311 311 311 312 311 311 311 312 312 312 313 313 314 313 313 313 312 312 313 313 313 313 313 313 312 312 312 312 311 311 311 310 309 309 310 310 310
Wind_Speed
23 25 25 25 27 27 27 29 28 30 29 23 21 18 9 5 7 10 15 18 19 11 2 5 5 4 8 9 9 9 8 9 11 10 10 10 8 8 9 10 10 10 9 9 10 8 6 4 3 1 5 7 8 9 11 11 7 4 2 2 1 2 5 8 8 7 8 9 12 16 19 19 17 15 15 15 15 13 10 8 7 7 10 9 7 8 5
22 24 25 25 25 25 26 27 26 27 26 21 18 13 7 6 7 7 10 14 13 7 4 6 6 6 10 11 9 8 7 8 11 11 9 7 7 8 8 8 8 9 9 9 9 7 5 2 1 1 2 5 6 9 11 11 8 5 4 3 0 4 8 10 9 7 8 8 10 13 17 16 13 13 17 17 18 18 14 11 8 8 10 11 9 7 4
21 23 24 24 24 25 25 25 24 25 24 19 14 9 7 7 5 3 8 11 8 5 5 6 6 8 11 12 10 9 7 7 10 11 9 7 8 9 8 9 10 9 9 10 10 8 7 3 1 1 1 4 5 8 10 9 9 8 9 8 4 4 7 10 11 11 11 11 9 8 11 14 11 12 19 21 21 22 16 10 10 9 10 12 10 6 3
21 22 23 23 24 24 24 24 23 22 22 18 12 9 7 6 4 5 8 6 4 4 4 5 7 8 9 9 9 10 9 7 9 10 7 7 10 10 8 11 11 9 9 9 11 9 8 5 2 2 1 2 4 6 7 7 10 11 12 9 5 4 5 6 6 5 5 3 2 3 2 11 16 17 20 20 21 22 16 11 10 9 9 11 11 8 5
20 21 21 22 23 24 23 23 21 20 20 17 11 8 6 5 5 7 7 5 5 5 5 6 7 8 9 7 7 10 11 9 8 8 6 8 11 8 6 10 11 10 11 8 8 7 7 6 3 2 2 3 3 3 3 6 10 11 10 8 5 4 5 4 3 2 2 3 4 5 3 7 15 18 20 20 20 21 19 15 12 9 9 10 10 12 11
20 20 20 20 22 23 22 21 20 19 19 16 10 6 5 5 5 6 5 5 6 6 7 9 10 10 9 6 6 10 11 10 9 7 5 7 10 6 4 9 12 11 12 9 5 4 6 6 3 2 3 5 4 1 3 5 9 9 7 8 5 4 4 3 3 3 2 2 2 2 1 2 5 10 14 17 19 21 20 18 16 13 10 8 7 12 14
20 20 20 19 20 22 22 21 19 18 17 14 8 5 5 5 5 5 5 6 7 8 10 11 11 10 7 5 5 9 11 10 9 7 7 5 6 6 7 10 13 11 10 9 6 4 3 2 2 4 6 6 5 2 2 3 7 8 6 6 6 4 0 2 3 4 3 4 2 1 1 2 4 7 9 11 14 16 16 16 17 17 15 12 11 13 13
21 20 20 19 19 20 21 21 19 18 16 11 7 5 4 4 4 5 6 7 8 8 9 9 9 7 5 4 6 8 10 11 10 9 9 7 4 7 9 11 12 10 9 8 6 8 9 6 6 8 8 5 4 3 1 3 7 8 6 5 6 4 1 2 4 4 5 5 4 4 3 4 6 9 10 11 12 13 13 12 13 15 14 14 15 14 12
22 22 21 19 18 18 19 19 19 17 14 9 6 5 5 5 5 4 5 6 7 8 7 7 7 5 3 4 7 8 9 10 11 10 6 4 3 7 11 12 10 9 8 7 7 8 10 11 10 10 9 7 5 4 4 6 8 6 5 5 5 5 2 1 3 5 6 6 6 6 5 6 10 12 13 14 13 13 12 11 12 12 12 14 15 13 10
24 24 23 21 19 18 17 17 18 16 12 8 6 5 6 6 4 3 4 6 7 8 7 7 6 4 4 6 8 9 9 10 11 8 3 1 3 7 10 11 8 7 7 7 8 10 12 13 12 10 10 10 9 8 8 9 7 5 5 5 3 4 4 2 2 5 5 6 5 4 4 7 11 12 15 17 16 14 14 13 14 14 13 13 12 10 8
24 24 24 23 20 19 17 16 16 16 13 9 7 7 7 5 3 2 3 5 7 7 7 7 6 5 7 9 9 8 9 10 10 7 5 6 8 8 9 9 7 6 6 7 9 12 14 14 13 12 12 13 12 11 11 11 9 6 5 5 4 3 4 3 2 4 4 4 2 3 6 9 6 3 7 14 16 16 16 15 15 15 14 12 11 9 8
25 25 25 24 22 20 19 17 16 15 14 12 10 10 8 4 3 3 3 5 8 8 7 7 8 9 11 11 9 7 9 10 10 9 9 10 9 9 8 8 6 6 7 10 12 13 14 14 13 13 13 14 14 13 13 13 12 9 7 7 6 4 4 4 3 4 5 2 2 7 8 5 2 4 3 4 8 10 11 11 12 13 13 14 14 12 11
26 26 26 26 24 22 20 18 17 18 16 13 12 14 10 4 4 4 3 5 8 7 8 10 11 12 11 9 9 9 10 11 10 10 10 9 8 8 7 6 7 7 9 12 13 13 11 10 9 10 11 11 11 12 14 15 14 12 10 9 7 6 5 4 4 4 5 4 6 8 3 2 2 3 4 3 5 6 7 11 14 13 10 9 10 10 10
28 28 28 28 26 23 21 19 19 20 19 15 14 15 12 7 6 4 2 4 7 8 9 11 10 10 10 9 10 10 10 11 10 8 7 7 7 6 6 7 8 8 9 10 10 8 7 6 5 5 7 7 8 10 13 15 15 15 14 11 9 8 5 4 5 6 6 6 7 7 3 3 4 5 5 3 4 4 3 8 8 5 1 1 4 7 9
29 29 30 30 27 23 22 21 20 20 21 19 16 16 14 11 10 7 4 4 7 9 7 7 8 10 11 11 11 10 9 8 7 7 7 6 5 5 6 7 8 9 8 8 6 4 4 5 4 4 5 6 7 7 7 9 11 15 15 13 10 9 7 5 6 6 6 6 7 7 7 7 5 6 7 5 3 3 2 4 3 6 5 1 2 4 6
31 31 32 30 27 24 23 23 21 20 22 20 18 18 17 14 13 10 6 4 5 6 5 6 9 11 11 10 10 9 8 7 6 7 5 3 4 6 6 5 8 9 8 6 5 4 5 5 4 4 4 3 4 5 5 6 7 10 13 13 13 12 9 6 6 6 7 8 8 8 7 4 3 7 8 6 3 2 2 4 5 5 6 2 2 3 5
32 32 31 28 26 25 24 23 22 21 21 21 20 20 18 15 16 14 8 4 5 7 9 10 11 10 8 7 8 7 7 6 6 6 4 4 7 8 6 6 7 8 5 4 4 3 5 5 4 5 4 0 2 5 5 6 6 8 10 12 13 11 8 7 8 8 7 8 8 6 6 2 4 5 6 6 3 2 4 6 4 5 5 3 2 4 5
32 30 28 27 26 26 24 23 22 22 21 21 22 22 19 16 16 15 8 4 5 7 8 9 8 7 7 7 8 7 7 7 7 6 6 6 5 5 6 7 6 4 4 4 4 4 4 3 2 4 3 1 2 5 4 5 6 5 6 8 10 9 8 8 9 9 8 10 8 6 5 3 2 4 4 4 1 3 5 4 2 3 0 2 2 5 5
30 28 28 27 26 26 25 23 22 22 22 21 19 21 21 18 18 17 10 5 5 7 7 8 10 10 10 9 8 8 7 8 7 6 7 5 4 7 9 6 3 3 4 4 4 3 4 3 3 3 4 2 1 4 4 4 3 2 3 6 8 8 8 7 8 8 8 8 8 7 6 1 1 6 5 1 3 4 1 0 1 2 2 1 2 5 4
29 28 28 27 26 27 26 24 22 22 22 21 18 20 21 19 20 21 16 8 5 8 11 12 13 14 12 10 10 9 8 8 7 5 7 6 6 9 7 2 1 3 3 2 2 2 2 3 3 2 3 3 3 4 3 3 3 3 3 4 4 5 6 8 9 8 7 8 8 8 6 2 7 5 3 4 4 3 5 3 2 2 3 3 3 3 3
30 29 29 28 28 27 26 24 23 23 22 21 20 19 19 18 20 23 22 14 7 6 8 9 10 13 13 13 14 14 12 11 10 7 8 7 6 6 5 3 3 3 2 2 3 1 2 2 2 1 2 2 3 4 4 3 4 3 3 4 4 4 5 5 6 4 5 9 8 3 2 4 8 6 3 3 6 7 8 6 4 2 2 4 3 3 3
31 30 30 29 28 27 26 25 24 24 23 21 19 18 17 18 19 20 21 18 12 9 11 12 14 18 20 20 20 19 18 17 16 13 10 8 6 6 6 6 6 3 2 3 3 1 2 2 1 2 3 2 3 4 5 5 3 2 2 4 4 2 1 3 3 2 4 7 6 7 10 9 7 6 6 9 12 10 8 8 7 4 3 4 4 4 5
32 32 31 30 28 27 26 25 24 24 24 21 19 17 16 17 19 20 19 16 12 11 14 16 16 17 19 18 17 17 17 17 18 17 14 10 7 6 7 7 5 3 2 3 4 3 3 3 2 3 3 3 3 5 5 5 3 1 3 5 4 1 1 2 4 5 7 9 10 10 13 13 10 8 8 10 11 11 9 8 7 6 5 4 4 5 5
34 33 31 30 29 27 26 25 25 26 24 21 19 17 16 17 19 20 17 11 7 6 8 10 10 9 11 10 7 9 11 12 13 14 14 13 9 6 5 4 4 3 3 3 4 4 3 3 2 3 4 3 3 5 6 4 3 3 4 5 5 3 2 2 4 6 7 6 7 9 12 13 12 11 10 10 10 10 9 8 8 7 7 6 4 4 4
34 33 32 30 29 27 26 26 26 26 24 21 17 13 12 14 19 21 17 8 3 3 4 5 6 7 10 8 5 7 8 9 11 12 14 16 15 10 6 4 4 5 4 4 4 4 4 4 3 4 5 4 3 5 6 4 3 4 4 5 5 1 1 2 7 8 8 8 10 12 15 16 15 13 10 9 9 11 11 10 9 8 7 6 4 2 1
32 32 32 30 29 28 28 28 28 26 23 19 15 10 10 13 17 22 19 8 2 3 4 5 5 6 9 10 11 12 12 12 13 14 15 17 19 18 14 10 9 9 7 5 5 5 4 5 5 6 6 4 4 5 6 6 6 6 7 8 7 4 5 6 7 8 10 11 12 13 14 15 16 14 9 6 7 10 13 13 12 10 9 7 4 1 2
31 32 31 30 29 29 29 29 28 25 21 17 13 9 9 12 15 19 18 11 4 2 4 5 4 6 11 16 19 16 12 13 14 14 15 16 17 18 17 13 10 9 7 6 6 5 5 6 7 7 7 5 5 6 7 7 8 8 9 9 8 7 8 8 7 8 9 9 9 9 9 10 10 9 7 8 9 11 13 14 13 12 10 9 6 2 3
30 31 31 30 31 30 29 29 27 22 17 13 9 6 6 10 12 15 18 17 10 2 3 4 6 9 11 14 13 10 8 10 12 12 13 15 16 17 16 13 10 8 7 7 6 5 6 7 7 7 6 5 6 7 7 7 7 8 9 9 8 8 9 8 8 10 11 11 11 9 8 10 11 11 12 12 12 12 13 14 14 13 11 9 7 3 3
31 31 31 31 31 31 30 27 23 17 12 7 3 2 4 7 9 12 16 20 16 6 3 5 7 7 7 8 8 8 7 8 10 11 12 13 14 15 13 11 10 8 7 7 6 6 7 7 7 7 5 3 3 5 6 7 8 9 10 10 9 10 11 11 12 14 14 15 14 12 11 14 15 15 15 13 12 13 13 14 14 13 10 8 7 3 2
31 31 31 31 31 30 27 23 17 11 5 3 3 3 1 3 6 10 14 19 19 10 2 3 4 5 6 7 9 8 7 7 9 11 12 11 11 11 11 10 9 8 7 7 6 7 7 6 7 8 7 5 4 5 6 8 9 9 10 11 12 12 12 11 12 13 13 13 13 12 14 16 16 16 16 15 14 14 14 14 14 13 11 8 5 2 2
32 32 32 32 30 26 21 15 9 3 5 8 6 2 1 1 1 4 8 16 19 11 2 3 5 6 6 5 6 7 8 7 8 9 9 9 9 10 11 10 8 7 7 7 6 7 7 7 7 8 8 7 6 5 7 9 10 11 12 12 11 11 12 11 12 13 13 14 14 15 16 17 16 15 15 15 15 14 14 14 13 12 11 8 4 3 2
33 34 34 32 26 19 11 5 1 5 9 9 5 2 2 3 3 3 5 12 15 8 1 2 4 4 3 2 4 6 8 7 6 5 6 7 7 8 10 9 7 8 8 7 6 5 6 8 8 8 8 7 6 6 8 10 12 15 16 12 9 10 12 13 14 15 15 15 14 16 17 17 16 16 15 15 14 13 14 15 13 10 9 7 5 4 3
35 34 32 26 18 10 6 4 6 8 9 8 4 2 3 3 5 7 10 11 8 4 1 2 3 3 3 4 4 3 3 4 4 3 4 5 5 5 6 7 7 7 8 7 5 4 5 6 7 8 8 6 5 6 9 12 16 19 19 16 13 13 14 14 14 16 16 16 15 17 18 17 16 16 15 15 15 14 14 13 11 10 10 9 6 5 4
34 31 25 17 9 8 9 9 9 8 7 4 2 1 2 3 5 10 13 11 5 2 1 2 3 3 4 5 3 1 2 4 3 2 2 2 4 4 4 5 5 5 7 8 6 5 6 6 6 7 7 4 4 6 9 14 19 20 18 17 16 14 13 12 12 14 16 17 17 18 19 18 16 15 15 15 14 13 12 11 11 12 11 9 7 6 6
29 23 15 8 6 10 12 11 8 6 5 3 2 2 1 2 6 12 14 9 3 2 2 2 3 3 4 5 2 3 4 6 4 3 3 1 3 3 3 3 4 5 5 5 5 6 7 5 5 6 6 4 5 7 9 13 17 17 16 16 16 13 12 10 10 12 14 15 16 17 18 18 18 16 16 16 14 12 11 10 11 13 12 9 7 7 6
20 12 7 4 8 9 8 8 6 4 5 4 4 3 3 3 8 15 13 5 2 1 1 1 2 2 3 4 3 3 5 5 4 3 3 2 2 2 2 2 3 3 1 2 4 6 4 2 3 5 5 4 5 8 11 17 21 21 20 19 16 14 13 13 13 14 14 14 15 16 16 17 19 17 15 15 13 12 11 11 12 14 13 10 8 6 5
10 5 3 5 6 4 4 5 6 6 5 6 8 11 12 10 9 11 8 2 0 2 1 1 3 3 4 4 3 4 4 4 4 4 3 2 2 1 1 1 2 1 1 2 4 4 2 2 3 5 4 4 8 12 15 17 19 20 19 17 14 13 14 15 17 17 16 16 17 16 14 15 16 15 13 12 11 11 12 12 13 14 13 10 8 6 6
9 5 3 3 1 2 4 5 5 5 3 6 8 9 8 6 4 4 3 2 2 3 2 2 3 3 3 4 3 4 3 3 4 4 2 2 3 2 1 1 1 1 1 2 1 2 3 3 2 3 5 6 10 14 16 14 12 11 10 10 12 13 13 13 15 16 15 13 13 13 13 13 14 14 12 10 9 9 9 9 9 10 9 8 8 7 7
10 3 1 1 2 4 4 4 3 3 7 7 6 3 2 1 1 1 1 1 2 2 2 3 3 3 3 4 4 3 1 2 4 3 2 2 3 2 2 2 1 1 2 2 1 3 3 3 2 2 5 7 11 16 17 15 14 13 10 8 9 10 9 10 10 13 13 10 9 11 12 11 12 13 11 9 8 8 7 7 7 8 7 7 7 8 9
6 2 1 3 3 2 3 3 1 6 6 4 3 2 1 0 0 1 1 1 2 2 2 2 2 3 4 5 4 2 1 1 2 3 3 3 2 2 2 2 2 2 2 2 1 3 2 3 3 3 5 8 12 15 16 16 17 16 14 12 12 12 10 8 5 8 10 8 7 10 12 10 10 11 10 9 9 8 7 7 8 8 7 7 6 7 8
5 3 2 2 3 4 4 1 2 4 2 1 0 1 1 1 1 1 1 2 1 0 1 2 2 2 3 4 3 2 2 2 2 2 2 2 1 1 2 2 2 2 2 3 2 2 2 3 3 4 7 10 13 14 16 17 18 18 17 16 16 15 12 9 5 1 5 5 7 9 11 11 11 10 9 9 8 6 7 8 9 8 7 7 8 8 9
4 3 2 3 4 4 2 0 1 0 2 2 2 2 2 2 0 0 1 1 2 2 1 2 2 3 1 3 3 3 2 2 2 2 2 2 2 1 2 2 2 2 3 3 3 3 3 4 4 5 8 11 14 15 16 16 17 18 18 18 17 17 18 16 13 9 7 5 7 8 8 10 10 8 8 8 6 4 4 6 7 7 7 7 7 8 9
6 4 2 1 2 2 1 2 2 2 2 3 3 3 4 4 3 3 2 1 2 3 2 1 2 3 1 2 2 2 2 1 2 2 2 2 1 1 2 3 3 3 2 2 3 4 4 5 6 7 8 10 12 14 14 14 15 16 18 18 18 19 21 20 18 18 17 15 12 10 8 8 8 8 7 7 7 5 4 5 7 9 10 10 10 11 13
5 3 1 0 1 2 2 3 3 3 3 3 3 4 6 7 6 5 5 4 4 6 6 4 4 4 2 1 1 1 1 2 2 1 1 2 1 2 3 4 3 2 1 2 4 4 4 4 6 8 9 10 11 12 12 13 13 14 17 19 21 22 23 22 20 20 20 18 16 15 14 13 14 14 14 13 11 7 6 8 10 13 16 16 15 16 18
3 3 3 3 3 4 3 2 3 4 4 3 3 3 5 7 7 7 6 5 5 7 8 7 6 6 5 2 0 1 1 1 1 0 2 2 2 3 3 2 2 2 3 3 4 4 4 6 8 10 11 12 12 11 11 11 11 12 14 18 20 22 22 22 21 19 18 17 17 17 15 15 16 15 15 18 19 15 13 15 16 17 20 20 18 18 20
2 3 4 4 5 4 4 3 3 3 3 3 4 4 5 6 6 6 6 5 6 8 9 7 6 6 6 4 1 1 2 2 2 2 2 2 3 4 2 1 2 3 4 5 5 5 7 8 8 9 12 14 13 11 10 9 9 10 12 14 17 18 19 19 19 19 17 17 18 17 16 16 17 17 18 21 22 22 24 27 26 25 25 23 19 19 23
3 3 3 3 4 5 5 4 4 5 5 5 6 7 6 5 4 4 4 5 5 6 7 6 5 4 4 3 3 3 3 3 3 4 3 2 3 3 2 3 4 4 5 6 7 6 6 7 8 8 10 12 11 11 11 11 11 12 12 13 14 16 17 17 17 17 16 16 17 16 15 17 20 21 20 22 23 25 30 33 31 30 30 28 24 25 28
3 3 3 3 4 5 7 7 7 7 8 7 7 7 6 5 5 5 5 4 4 5 5 5 4 3 3 4 4 5 5 4 4 4 3 3 3 3 3 5 5 4 4 6 7 6 6 7 7 8 9 9 9 9 10 11 12 14 13 13 14 15 17 17 16 17 17 16 14 13 13 16 19 20 19 18 19 23 28 31 29 29 30 29 27 28 29
4 3 3 3 4 5 7 7 7 8 9 9 8 8 8 7 7 7 6 5 5 4 3 2 2 3 4 4 4 5 6 6 5 5 5 5 5 4 4 5 5 5 4 5 5 6 6 7 7 8 9 9 9 9 8 9 11 13 13 13 13 14 15 16 17 18 19 18 16 15 16 16 17 18 17 15 14 18 24 27 27 26 26 26 25 25 26
6 4 5 5 5 6 6 7 8 9 9 9 9 9 9 8 8 8 7 7 6 4 2 1 1 3 3 3 3 5 6 5 5 5 6 6 5 4 4 4 5 4 4 4 5 5 5 6 6 8 10 10 10 10 10 10 11 12 12 14 15 15 16 17 18 19 20 21 21 21 20 19 17 16 15 14 15 19 23 24 22 21 23 24 23 23 23
4 5 5 6 7 6 6 7 8 9 9 9 9 9 9 8 8 9 10 8 5 4 5 4 3 4 4 4 4 4 3 3 4 6 7 5 4 4 4 4 3 3 4 4 5 5 5 5 6 8 9 9 10 10 10 11 11 12 13 15 16 17 19 20 20 19 20 21 22 22 20 18 17 16 16 17 19 20 20 19 18 19 21 22 22 21 21
4 5 5 6 7 7 6 6 7 7 8 8 8 8 8 8 8 10 11 8 6 7 7 6 5 5 6 5 4 3 2 3 5 7 6 4 3 4 4 3 2 3 4 5 5 5 6 6 7 8 8 9 10 10 11 11 11 13 15 16 17 16 17 18 19 19 19 20 21 21 19 18 18 18 18 19 18 16 13 13 15 17 18 19 19 19 20
Wind_Direction
350 352 353 353 354 354 354 354 354 355 359 0 352 342 335 338 327 327 340 341 333 326 338 6 350 356 357 335 324 334 329 325 327 329 335 323 300 288 272 270 274 272 279 279 266 264 271 278 289 53 78 56 31 11 359 347 332 302 237 155 110 260 224 216 214 201 204 201 183 193 206 201 201 208 205 205 206 205 211 218 210 209 219 219 224 242 231
350 351 353 354 354 353 353 354 354 357 2 0 349 344 343 332 312 316 344 345 336 339 12 358 345 350 344 333 339 349 341 342 340 336 343 338 318 310 295 287 289 287 285 273 266 264 250 240 327 310 67 63 29 10 6 357 1 21 4 355 313 216 209 207 212 197 186 188 184 195 205 207 210 209 205 209 210 207 212 221 226 229 222 215 218 231 214
348 349 351 352 352 352 352 353 354 356 2 4 354 343 334 328 318 335 350 348 348 9 20 349 339 347 340 334 344 350 347 359 351 336 338 351 339 322 315 317 309 298 287 261 250 257 256 268 334 259 92 70 39 13 8 5 16 20 354 335 303 244 211 205 210 205 196 192 189 195 201 202 209 211 206 208 210 208 210 216 221 225 221 219 225 228 143
346 347 349 349 349 351 351 352 355 355 360 5 355 335 334 337 341 349 345 342 351 6 6 346 340 345 338 333 342 343 340 355 356 340 342 6 354 329 322 337 330 322 316 271 237 240 254 270 295 237 244 54 44 18 9 18 17 356 341 335 303 249 213 215 231 231 219 197 122 12 260 202 199 206 208 207 208 209 210 217 219 215 219 226 229 229 192
344 343 346 347 347 349 349 350 354 355 358 2 348 326 337 348 345 351 344 329 339 347 347 347 343 336 330 329 335 335 335 344 353 350 353 5 358 333 321 353 355 350 343 308 248 240 243 242 249 258 320 357 21 30 26 26 9 346 341 353 325 234 195 212 262 305 335 354 20 13 335 210 199 203 207 208 208 209 212 220 220 209 219 228 217 218 224
343 340 341 343 344 345 346 347 351 354 356 359 351 339 355 350 341 354 342 315 326 334 330 331 327 323 326 326 325 330 336 342 350 354 346 353 5 358 335 355 359 354 346 327 289 258 239 230 242 285 336 345 332 54 94 50 14 351 351 14 352 263 199 184 238 264 281 298 333 3 329 235 211 209 207 207 209 211 216 224 224 220 228 238 216 213 225
343 341 339 339 340 341 342 343 346 351 354 351 341 341 359 343 328 345 336 314 311 312 311 313 314 320 325 320 327 334 335 343 353 346 319 318 5 9 345 348 351 346 340 332 330 339 306 260 21 352 339 341 325 284 155 84 26 1 356 19 0 306 198 83 285 271 237 226 241 262 234 222 224 225 217 213 216 219 224 229 231 233 236 241 239 236 235
341 339 337 336 335 336 338 339 339 344 350 348 338 343 354 339 330 334 323 313 307 304 306 309 309 318 318 313 344 344 332 340 349 335 320 318 355 5 347 341 340 334 331 326 325 345 346 335 343 341 330 333 340 317 302 29 9 355 356 10 350 325 34 30 310 269 214 208 206 204 224 237 237 236 230 226 226 225 226 229 233 238 241 241 244 249 247
339 337 334 331 330 330 332 334 334 339 345 342 337 343 339 324 322 320 310 310 310 306 311 313 307 313 321 328 345 340 328 336 336 331 348 6 352 348 338 330 328 318 315 314 306 322 329 314 308 316 309 306 320 316 318 339 341 340 350 351 333 325 336 343 278 241 203 185 195 209 231 252 247 238 230 226 225 225 224 223 225 230 235 240 244 246 245
338 337 334 329 324 322 324 325 327 332 332 322 318 328 332 326 319 315 298 297 303 307 308 308 305 314 329 326 326 321 319 328 327 331 29 88 298 321 320 315 318 309 304 313 311 309 306 296 295 299 289 284 289 287 289 302 308 313 322 321 316 316 314 308 251 237 191 157 186 227 241 245 245 235 224 222 221 223 225 223 224 225 227 234 241 243 246
336 335 333 328 321 316 316 315 317 319 315 306 297 302 317 322 306 303 288 282 299 311 308 306 311 315 314 311 310 310 312 319 326 329 318 304 311 315 306 302 303 300 305 311 304 296 291 285 279 274 271 272 272 270 273 278 277 277 289 291 289 288 284 286 284 250 206 154 170 246 229 228 233 214 212 217 217 220 224 224 223 220 221 234 246 252 256
332 331 329 326 321 315 311 306 304 304 303 298 283 281 296 305 279 281 279 286 303 310 303 303 308 307 305 304 303 304 307 312 317 311 300 306 316 307 297 300 297 296 310 308 298 294 289 280 267 253 248 254 258 259 260 261 259 255 251 256 267 269 254 255 265 252 246 245 220 222 220 215 134 78 96 199 213 221 230 236 236 231 230 238 246 248 250
327 327 325 325 321 315 308 304 297 293 294 290 270 268 276 273 258 266 266 281 292 298 302 303 301 299 300 302 304 304 306 308 306 298 295 303 308 302 301 308 304 305 308 302 300 302 295 281 266 250 239 237 243 248 246 245 245 244 237 234 244 253 251 251 248 242 251 252 221 212 204 56 109 135 111 137 174 189 221 236 237 239 243 247 252 255 256
324 323 323 323 319 311 304 301 296 290 287 280 266 267 266 243 237 256 255 268 281 291 298 298 297 301 304 307 310 307 305 306 303 300 305 305 302 304 311 310 308 310 307 302 304 307 294 277 266 247 227 219 228 235 233 232 234 233 229 225 227 237 248 248 239 235 237 240 233 230 270 299 227 170 112 112 143 141 234 243 222 197 172 276 262 264 268
322 321 322 320 316 309 302 299 295 289 284 277 265 261 255 234 229 242 237 246 283 292 290 287 301 315 314 311 313 311 306 309 308 307 309 300 294 305 311 310 307 303 295 291 291 289 278 278 271 239 209 209 226 228 213 213 218 218 220 221 216 222 235 238 235 231 229 241 245 239 249 255 221 148 111 96 83 67 9 271 201 123 93 55 250 258 271
320 320 320 317 312 308 304 297 292 287 284 278 265 255 252 238 223 226 232 238 270 282 288 297 305 309 307 303 305 302 300 307 313 312 307 299 308 313 316 318 307 294 286 279 276 281 280 274 269 255 235 223 244 235 204 206 207 194 200 209 209 213 223 232 242 238 225 232 238 231 236 236 128 122 119 112 101 100 142 236 220 132 92 46 280 285 292
320 319 316 313 311 309 305 298 291 285 280 277 265 251 245 233 220 220 227 230 242 262 281 293 295 295 293 296 301 298 299 307 305 301 304 310 312 313 320 325 303 280 274 282 274 272 276 276 279 273 262 284 282 255 223 219 209 171 175 196 202 207 213 216 229 232 225 232 237 233 241 232 111 121 120 103 96 164 200 225 206 117 80 26 316 302 308
318 315 313 312 312 310 307 301 294 287 281 278 267 252 240 229 218 216 221 235 247 261 276 280 278 282 290 300 303 298 300 306 299 295 299 300 309 319 320 322 308 263 249 282 287 279 283 300 336 310 303 19 283 270 255 229 213 168 163 190 193 198 206 210 219 223 223 231 236 238 247 245 189 185 149 89 64 220 220 227 140 111 56 335 309 301 311
313 312 313 314 313 311 308 302 296 291 287 283 268 248 237 226 212 208 212 231 241 253 274 280 277 280 283 285 286 282 283 287 286 292 296 293 336 332 308 295 295 271 255 269 284 289 297 328 23 340 313 351 330 295 294 262 228 154 164 197 195 195 199 206 220 224 220 223 232 242 240 234 276 244 225 236 266 240 223 30 141 194 263 276 271 283 304
312 312 314 314 313 311 308 302 298 295 292 288 272 248 236 226 214 208 212 225 246 259 271 275 272 274 276 274 274 278 281 276 268 275 283 290 329 326 303 243 198 285 272 273 285 300 321 344 20 350 300 329 343 312 291 258 239 216 211 217 208 204 207 207 208 214 224 224 223 227 219 67 21 329 236 217 258 312 6 345 226 218 291 293 281 292 318
313 312 313 313 312 311 307 303 302 300 296 292 280 258 237 223 218 214 215 221 240 265 273 275 274 275 277 274 273 274 273 270 269 275 282 288 303 306 303 341 341 313 319 320 305 345 20 354 8 312 286 314 318 306 308 281 242 214 225 250 241 220 225 225 208 200 221 218 207 215 303 4 4 345 308 307 317 338 354 332 303 313 319 302 302 315 321
312 312 313 313 311 310 307 306 305 304 302 300 288 265 236 219 218 218 214 215 225 248 268 284 288 282 278 275 271 266 263 264 264 263 266 275 279 270 277 301 308 298 319 318 305 333 1 339 326 296 291 297 292 300 310 291 242 153 185 238 224 173 41 310 274 276 282 256 262 319 322 313 324 335 338 337 331 332 339 329 316 318 331 326 314 309 312
313 314 314 313 312 311 309 308 307 306 306 306 296 273 242 218 212 210 207 210 224 247 264 274 280 278 274 270 264 256 253 256 256 252 249 254 264 263 261 272 280 269 274 303 316 334 333 328 328 309 301 302 292 295 296 277 261 263 240 234 226 185 45 322 286 294 302 287 278 285 287 288 305 325 330 330 327 328 334 332 322 322 327 320 308 307 309
315 314 314 314 313 313 312 309 309 309 308 307 300 282 253 224 208 201 199 206 228 253 263 259 261 275 285 284 269 246 239 242 245 244 238 235 242 256 256 249 260 262 266 298 311 311 312 313 307 289 289 292 282 281 281 274 278 294 272 251 249 238 177 200 264 282 288 279 273 278 283 290 303 312 315 317 315 319 328 329 326 325 316 304 305 313 307
315 314 314 314 314 314 314 312 311 312 311 307 303 286 250 223 209 201 197 199 214 236 268 263 251 275 299 300 270 245 249 249 242 236 228 223 228 242 259 274 280 277 286 305 294 278 281 290 280 272 279 283 273 270 279 284 292 303 293 272 263 271 74 246 255 260 262 264 277 287 289 292 292 289 293 304 306 311 321 320 315 313 305 293 296 319 319
314 313 313 314 315 316 316 315 314 315 315 310 303 279 238 222 213 206 202 196 174 208 253 274 265 277 301 297 275 268 271 262 246 236 230 226 228 238 253 271 281 279 281 286 278 271 273 273 270 271 272 267 260 268 280 287 287 286 280 271 265 271 282 272 263 265 265 263 268 273 274 275 272 267 272 302 314 314 317 314 308 306 299 283 266 164 68
313 313 314 315 317 318 319 318 316 317 317 310 301 280 242 226 220 214 205 190 160 214 246 251 267 294 297 289 283 277 264 247 238 235 234 233 232 237 246 255 265 271 274 271 265 263 260 257 260 263 263 266 272 271 273 279 282 279 271 265 261 260 263 264 264 265 262 257 258 266 271 270 267 271 297 324 324 314 314 314 310 306 301 292 273 205 114
314 315 315 318 320 321 322 320 319 320 319 311 300 280 234 220 224 226 214 201 193 222 281 262 284 300 293 284 283 278 251 234 231 232 233 232 230 232 236 240 245 251 253 255 257 256 253 256 262 263 264 274 276 268 265 267 268 266 262 259 255 253 257 262 262 260 262 267 271 279 286 284 284 290 300 306 308 304 305 307 305 301 298 295 285 246 134
316 317 319 321 322 322 323 322 320 319 315 306 295 225 213 221 229 232 221 212 209 218 282 274 280 294 294 294 294 283 260 241 233 233 235 232 228 229 231 233 237 241 243 246 253 255 255 259 266 268 270 278 278 272 271 267 260 260 263 264 259 252 253 260 264 265 268 272 274 279 279 276 279 285 289 293 297 295 293 295 296 293 288 283 281 271 126
320 320 322 324 324 324 324 323 322 318 292 206 151 136 163 233 234 231 226 218 212 209 238 269 273 300 308 300 293 282 266 250 244 243 243 238 234 234 232 231 235 239 242 244 247 255 262 263 263 267 265 256 259 271 270 267 267 266 262 258 253 251 254 257 257 257 263 269 273 276 274 272 276 280 280 279 278 278 280 284 285 281 275 269 263 250 115
322 323 326 328 328 328 325 317 309 287 178 165 159 151 100 86 199 224 222 211 204 199 220 265 266 300 307 279 268 279 282 274 262 253 247 242 241 236 229 229 231 228 232 242 245 249 260 262 262 270 267 250 247 262 270 273 278 272 261 251 240 238 245 251 249 250 257 265 269 271 269 266 267 269 268 267 265 265 266 269 266 263 263 256 219 184 143
325 327 332 334 333 334 336 328 204 159 165 169 164 131 118 105 96 115 164 186 191 193 237 279 271 296 308 276 274 282 277 270 264 255 239 231 232 230 223 221 226 223 225 238 245 243 251 255 255 261 263 250 243 256 264 265 265 265 264 260 244 236 243 251 256 261 264 263 263 265 264 260 256 256 258 261 262 261 261 259 249 236 237 234 197 160 131
329 332 336 340 345 2 38 82 116 133 158 182 195 170 150 124 102 118 142 158 166 170 187 264 277 291 308 317 316 296 269 269 265 248 225 205 205 221 219 215 224 226 220 225 237 242 247 252 254 257 258 249 243 257 260 255 256 262 269 272 267 260 258 259 262 264 263 258 253 253 255 256 255 255 257 258 257 255 256 253 237 218 220 219 191 156 134
334 337 341 348 13 62 78 87 103 115 134 165 187 177 204 198 155 142 143 141 131 122 156 244 283 302 309 303 302 77 14 314 285 260 254 191 188 217 224 208 214 222 214 215 230 250 254 258 266 268 263 243 227 245 255 255 257 263 269 270 267 262 255 251 251 251 251 252 250 247 247 250 253 255 256 256 253 246 241 236 223 215 217 215 192 164 146
340 344 345 3 75 90 83 80 88 104 115 110 65 35 332 236 183 160 151 138 121 154 177 233 271 302 320 309 319 50 1 318 293 296 317 268 206 235 249 207 207 219 208 199 222 248 257 266 276 272 268 252 234 238 256 268 272 274 273 271 270 266 258 251 245 246 251 256 252 246 243 242 243 244 246 247 241 227 221 223 219 216 218 214 192 169 149
347 347 353 65 98 95 80 65 52 60 84 69 37 53 101 133 159 163 160 138 78 161 182 260 242 263 310 308 318 354 338 318 313 309 295 262 225 240 249 226 230 237 207 198 234 252 262 277 273 269 272 268 258 264 278 283 283 282 281 281 282 279 274 269 264 263 267 263 254 249 244 237 233 231 232 232 224 208 205 213 216 217 217 209 186 159 131
360 6 48 99 114 111 84 62 37 33 62 82 86 101 113 121 140 158 167 170 198 185 211 276 251 266 294 289 299 336 334 324 330 326 304 313 324 274 231 250 273 295 300 244 252 270 283 259 259 273 281 277 278 288 294 291 283 277 275 277 279 276 271 267 263 260 259 255 249 245 237 227 221 217 213 206 195 191 199 208 214 215 210 197 174 143 121
35 55 102 143 150 42 49 39 13 15 80 137 133 120 117 121 133 158 186 225 216 190 192 231 246 264 272 258 279 327 335 325 329 331 326 341 340 325 309 329 321 321 297 274 288 326 301 261 250 281 283 281 296 314 326 330 321 305 285 271 270 271 271 269 258 242 233 235 232 220 209 206 203 198 190 175 168 181 198 207 211 212 200 181 160 140 133
37 47 205 262 10 37 26 352 353 84 121 150 173 167 115 104 133 171 206 232 233 213 206 231 249 252 244 255 283 314 322 313 320 314 311 340 341 337 352 357 344 323 303 299 1 14 327 288 276 296 300 312 329 337 341 342 343 344 338 315 301 300 299 291 260 224 214 217 206 185 181 184 185 182 172 157 163 184 194 196 203 203 186 166 152 141 138
30 17 355 21 33 23 339 338 86 132 138 161 189 172 120 121 241 266 267 253 242 218 201 235 256 234 228 255 292 313 169 206 301 301 304 328 328 308 326 339 336 334 317 308 4 35 354 305 306 341 350 347 345 343 341 340 344 352 353 346 343 344 336 317 273 211 204 210 190 170 167 167 168 166 162 162 173 182 181 183 192 186 168 154 144 134 132
18 16 10 1 333 312 315 334 146 161 185 295 21 75 20 350 162 196 281 292 302 276 190 230 280 267 212 221 251 257 211 214 251 266 278 301 306 311 333 332 328 341 341 333 345 359 338 324 344 10 5 351 344 344 344 342 345 355 1 358 359 7 12 10 10 156 183 175 159 157 160 160 158 157 159 163 169 171 174 179 179 170 161 155 148 142 140
360 3 331 307 305 305 306 82 133 260 331 350 6 6 353 352 356 290 312 329 339 331 232 214 284 315 245 205 230 245 222 214 234 246 275 325 352 349 329 320 337 4 359 342 331 331 342 2 16 10 356 350 347 348 347 343 346 356 4 3 8 22 33 33 30 33 47 84 115 128 139 146 148 150 155 157 152 152 167 167 158 151 142 129 124 131 133
16 18 1 324 301 304 336 29 22 7 2 359 358 2 3 3 2 358 6 15 329 326 325 215 258 282 239 192 227 237 211 214 252 271 310 345 4 348 340 354 9 5 342 332 344 357 11 22 15 356 348 350 353 351 348 346 348 357 6 11 17 28 36 37 38 39 40 45 54 60 70 90 97 97 107 117 116 116 112 105 116 127 118 94 79 83 95
13 2 354 46 343 342 11 33 14 5 13 9 356 355 358 0 4 8 4 352 335 338 346 342 322 333 18 93 237 256 231 216 222 241 330 335 326 349 8 15 6 336 316 353 7 9 19 17 0 349 347 353 357 355 352 352 354 360 9 14 19 25 32 36 41 43 42 43 47 47 47 54 60 61 62 61 58 63 78 78 85 102 103 90 75 74 85
345 333 355 27 17 5 22 38 10 6 14 6 351 350 351 351 358 5 3 349 334 338 347 347 342 354 13 24 297 327 340 272 200 46 351 337 5 24 20 3 336 335 5 20 15 18 23 9 355 350 351 354 357 357 357 360 2 3 7 12 18 24 28 31 37 42 43 44 49 51 51 55 57 58 58 52 44 44 60 67 66 77 86 82 71 67 72
30 3 11 34 35 26 30 28 11 5 4 353 354 5 1 354 355 358 356 350 345 346 349 347 344 0 17 24 32 22 343 333 10 15 339 341 28 30 7 319 345 5 17 22 22 26 21 7 355 351 352 352 352 352 356 4 12 15 15 18 21 25 27 29 34 38 39 42 48 51 52 55 54 53 58 58 50 46 55 59 57 60 68 69 63 63 67
47 13 11 41 44 37 38 39 33 25 18 13 15 17 12 7 6 0 352 346 340 340 344 341 337 354 13 15 26 41 24 8 22 21 358 359 29 28 23 35 30 17 15 21 22 19 9 357 351 352 351 348 348 352 359 6 12 19 26 27 26 27 30 32 33 33 32 36 43 46 47 52 53 52 54 57 51 46 51 55 53 55 62 64 61 60 62
43 16 18 41 44 35 32 34 37 36 30 25 24 23 20 23 26 17 3 339 319 328 348 349 341 349 5 9 25 36 28 17 27 29 12 7 20 19 23 36 35 24 21 24 19 6 353 346 343 346 349 350 352 357 360 1 2 6 16 24 25 27 31 33 35 36 36 36 40 41 43 54 60 59 57 56 50 46 51 55 55 55 61 65 64 62 61
56 39 32 44 55 43 28 24 32 35 28 21 19 19 20 24 26 18 4 342 328 338 356 340 325 354 6 3 20 35 30 24 29 33 26 28 34 24 17 30 36 29 17 10 2 353 344 338 342 355 2 4 4 0 355 354 357 2 11 19 23 29 33 32 31 34 37 41 45 47 46 51 58 59 58 58 54 51 53 57 58 58 60 63 65 66 64
48 44 36 31 35 34 23 22 33 35 26 20 19 15 11 16 22 16 1 342 331 341 21 52 18 20 12 354 18 44 38 25 29 40 40 40 39 32 27 34 34 20 359 348 346 347 342 342 359 16 19 16 13 10 4 3 6 9 12 17 22 29 35 36 33 32 34 39 44 46 45 45 48 51 54 60 63 61 58 57 58 61 64 65 65 65 65
41 50 45 35 32 30 24 27 35 33 24 22 22 14 8 12 12 1 351 346 351 21 35 30 22 28 28 22 29 39 30 15 31 46 48 41 34 37 45 42 15 345 342 348 352 358 1 4 14 22 21 16 14 15 14 16 18 18 19 21 23 25 30 34 35 34 33 35 39 41 42 43 46 49 54 58 60 61 58 51 48 54 62 64 63 63 64
41 52 53 44 36 33 30 33 36 33 28 28 25 15 12 15 7 352 349 359 21 37 38 35 36 42 42 37 31 35 42 42 43 46 47 40 25 29 38 34 359 337 342 348 355 10 20 18 16 18 20 18 17 19 22 26 26 25 26 28 27 26 26 29 32 33 34 35 37 40 43 45 46 50 54 54 54 57 60 53 46 51 59 62 62 64 66